Tracking 18980 objects as of 18-Feb-2018
HD Live streaming from Space Station
objects crossing your sky now

NOAA 16 DEB

Track NOAA 16 DEB now!
10-day predictions


NORAD ID: 42356
Int'l Code: 2000-055QY
Perigee: 813.9 km
Apogee: 870.9 km
Inclination: 98.9 °
Period: 101.6 minutes
Semi major axis: 7213 km
RCS: Unknown
Launch date: September 21, 2000
Source: United States (US)
Launch site: AIR FORCE WESTERN TEST RANGE (AFWTR)

Note: This is SATELLITE DEBRIS
aabbcc
Your satellite tracking list
Your tracking list is empty




NASA's NSSDC Master Catalog

Two Line Element Set (TLE):
1 42356U 00055QY  18048.04088590 +.00000751 +00000-0 +39253-3 0  9993
2 42356 098.8988 130.9215 0039516 026.3231 333.9940 14.17087566103633
Source of the keplerian elements: AFSPC